SWARM A

Last updated on Sun Jun 21 2026 00:03:39 GMT+0000 (Coordinated Universal Time)

1 39452U 13067B 26171.38119780 .00008694 00000+0 14908-3 0 9995 2 39452 87.3318 55.0548 0003059 96.4779 263.6830 15.51006351706740
UTC large
Height (km)
Speed (km/s)
/
Latitude / Longitude
Inclination (degrees)
Orbital Period (minutes)
Azimuth
Elevation
Range (km)
Doppler Factor

Next 0 passes for location: London (51.5072 / 0.1276)

No passes found over London.
SWARM A